Fort Atkinson, Wisconsin, United States (53538)
Lat: 42.93N, Lon: 88.84W
Wx Zone: WIZ064
Local Info
Past Weather Observations for Tuesday, September 16, 2014

NOTE: This archive is for the closest National Weather Service station to Fort Atkinson. Information may differ from the station used for current weather conditions.

Click here for Long-term Archive

Time Weather Temperature Dewpoint Humidity Pressure Winds Precip Visibility
23:55
Clear
41°F / 5°C 41°F / 5°C 100% 30.06 in
(1018 mb)
Calm - 10SM
23:35
Clear
41°F / 5°C 41°F / 5°C 100% 30.06 in
(1018 mb)
Calm - 10SM
23:15
Clear
41°F / 5°C 41°F / 5°C 100% 30.06 in
(1018 mb)
Calm - 10SM
22:55
Clear
41°F / 5°C 41°F / 5°C 100% 30.06 in
(1018 mb)
Calm - 10SM
22:35
Clear
41°F / 5°C 41°F / 5°C 100% 30.06 in
(1018 mb)
Calm - 10SM
22:15
Clear
43°F / 6°C 41°F / 5°C 93% 30.09 in
(1019 mb)
Calm - 10SM
21:55
Clear
43°F / 6°C 43°F / 6°C 100% 30.06 in
(1018 mb)
Calm - 10SM
21:35
Clear
43°F / 6°C 43°F / 6°C 100% 30.06 in
(1018 mb)
Calm - 10SM
21:15
Clear
43°F / 6°C 43°F / 6°C 100% 30.09 in
(1019 mb)
Calm - 10SM
20:55
Clear
45°F / 7°C 45°F / 7°C 100% 30.09 in
(1019 mb)
Calm - 10SM
20:35
Clear
45°F / 7°C 45°F / 7°C 100% 30.09 in
(1019 mb)
Calm - 10SM
20:15
Clear
46°F / 8°C 45°F / 7°C 93% 30.09 in
(1019 mb)
Calm - 10SM
19:55
Clear
46°F / 8°C 46°F / 8°C 100% 30.09 in
(1019 mb)
Calm - 10SM
19:35
Clear
46°F / 8°C 46°F / 8°C 100% 30.09 in
(1019 mb)
Calm - 10SM
19:15
Clear
48°F / 9°C 46°F / 8°C 94% 30.09 in
(1019 mb)
Calm - 10SM
18:55
Clear
50°F / 10°C 46°F / 8°C 88% 30.09 in
(1019 mb)
Calm - 10SM
18:35
Clear
50°F / 10°C 46°F / 8°C 88% 30.09 in
(1019 mb)
Calm - 10SM
18:15
Clear
52°F / 11°C 46°F / 8°C 82% 30.09 in
(1019 mb)
Calm - 10SM
17:55
Clear
57°F / 14°C 45°F / 7°C 63% 30.09 in
(1019 mb)
Calm - 10SM
17:35
Clear
59°F / 15°C 43°F / 6°C 55% 30.09 in
(1019 mb)
Calm - 10SM
17:15
Clear
61°F / 16°C 41°F / 5°C 48% 30.09 in
(1019 mb)
W 3.5 mph
(W 6 kph)
- 10SM
16:55
Clear
63°F / 17°C 41°F / 5°C 45% 30.09 in
(1019 mb)
W 5.8 mph
(W 9 kph)
- 10SM
16:35
Clear
63°F / 17°C 41°F / 5°C 45% 30.09 in
(1019 mb)
WNW 4.6 mph
(WNW 7 kph)
- 10SM
16:15
Clear
63°F / 17°C 41°F / 5°C 45% 30.09 in
(1019 mb)
SSW 4.6 mph
(SSW 7 kph)
- 10SM
15:55
Clear
63°F / 17°C 43°F / 6°C 49% 30.09 in
(1019 mb)
W 4.6 mph
(W 7 kph)
- 10SM
15:35
Clear
63°F / 17°C 41°F / 5°C 45% 30.12 in
(1020 mb)
SSW 8.1 mph
(SSW 13 kph)
- 10SM
15:15
Clear
63°F / 17°C 43°F / 6°C 49% 30.12 in
(1020 mb)
SW 8.1 mph
(SW 13 kph)
- 10SM
14:55
Clear
63°F / 17°C 41°F / 5°C 45% 30.12 in
(1020 mb)
WNW 4.6 mph
(WNW 7 kph)
- 10SM
14:35
Clear
64°F / 18°C 43°F / 6°C 46% 30.12 in
(1020 mb)
WNW 6.9 mph
(WNW 11 kph)
- 10SM
14:15
Clear
63°F / 17°C 41°F / 5°C 45% 30.12 in
(1020 mb)
NW 4.6 mph
(NW 7 kph)
- 10SM
13:55
Clear
63°F / 17°C 43°F / 6°C 49% 30.12 in
(1020 mb)
SW 5.8 mph
(SW 9 kph)
- 10SM
13:35
Clear
64°F / 18°C 43°F / 6°C 46% 30.12 in
(1020 mb)
W 6.9 mph
(W 11 kph)
- 10SM
13:15
Partly Cloudy
63°F / 17°C 43°F / 6°C 49% 30.15 in
(1021 mb)
W 5.8 mph
(W 9 kph)
- 10SM
12:55
Partly Cloudy
63°F / 17°C 43°F / 6°C 49% 30.15 in
(1021 mb)
SSW 4.6 mph
(SSW 7 kph)
- 10SM
12:35
Partly Cloudy
63°F / 17°C 43°F / 6°C 49% 30.15 in
(1021 mb)
SW 5.8 mph
(SW 9 kph)
- 10SM
12:15
Clear
61°F / 16°C 43°F / 6°C 52% 30.15 in
(1021 mb)
SSW 4.6 mph
(SSW 7 kph)
- 10SM
11:55
Clear
61°F / 16°C 41°F / 5°C 48% 30.15 in
(1021 mb)
SW 5.8 mph
(SW 9 kph)
- 10SM
11:35
Clear
61°F / 16°C 41°F / 5°C 48% 30.15 in
(1021 mb)
SSW 5.8 mph
(SSW 9 kph)
- 10SM
11:15
Clear
59°F / 15°C 41°F / 5°C 51% 30.18 in
(1022 mb)
NW 4.6 mph
(NW 7 kph)
- 10SM
10:55
Clear
59°F / 15°C 41°F / 5°C 51% 30.18 in
(1022 mb)
NW 4.6 mph
(NW 7 kph)
- 10SM
10:35
Clear
59°F / 15°C 41°F / 5°C 51% 30.18 in
(1022 mb)
WNW 5.8 mph
(WNW 9 kph)
- 10SM
10:15
Clear
59°F / 15°C 41°F / 5°C 51% 30.18 in
(1022 mb)
NW 4.6 mph
(NW 7 kph)
- 10SM
09:55
Clear
57°F / 14°C 43°F / 6°C 59% 30.21 in
(1023 mb)
W 4.6 mph
(W 7 kph)
- 10SM
09:35
Clear
55°F / 13°C 45°F / 7°C 67% 30.21 in
(1023 mb)
Calm - 10SM
09:15
Clear
54°F / 12°C 45°F / 7°C 72% 30.21 in
(1023 mb)
Calm - 10SM
08:55
Clear
54°F / 12°C 46°F / 8°C 77% 30.21 in
(1023 mb)
Calm - 10SM
08:35
Clear
52°F / 11°C 46°F / 8°C 82% 30.21 in
(1023 mb)
Calm - 10SM
08:15
Clear
50°F / 10°C 46°F / 8°C 88% 30.21 in
(1023 mb)
Calm - 10SM
07:55
Clear
48°F / 9°C 45°F / 7°C 87% 30.21 in
(1023 mb)
Calm - 10SM
07:35
Clear
46°F / 8°C 45°F / 7°C 93% 30.21 in
(1023 mb)
Calm - 10SM
07:15
Clear
45°F / 7°C 45°F / 7°C 100% 30.21 in
(1023 mb)
Calm - 10SM
06:55
Clear
41°F / 5°C 41°F / 5°C 100% 30.21 in
(1023 mb)
Calm - 10SM
06:35
Clear
37°F / 3°C 37°F / 3°C 100% 30.21 in
(1023 mb)
Calm - 10SM
06:15
Clear
37°F / 3°C 36°F / 2°C 93% 30.21 in
(1023 mb)
Calm - 10SM
05:55
Clear
Fog And Mist
36°F / 2°C 36°F / 2°C 100% 30.21 in
(1023 mb)
Calm - 4SM
05:35
Clear
36°F / 2°C 36°F / 2°C 100% 30.21 in
(1023 mb)
Calm - 10SM
05:15
Clear
36°F / 2°C 36°F / 2°C 100% 30.21 in
(1023 mb)
Calm - 10SM
04:55
Clear
36°F / 2°C 36°F / 2°C 100% 30.21 in
(1023 mb)
Calm - 10SM
04:35
Clear
37°F / 3°C 37°F / 3°C 100% 30.18 in
(1022 mb)
Calm - 10SM
04:15
Obscured
Fog And Mist
36°F / 2°C 36°F / 2°C 100% 30.18 in
(1022 mb)
Calm - 3/4SM
03:55
Clear
37°F / 3°C 37°F / 3°C 100% 30.18 in
(1022 mb)
Calm - 10SM
03:35
Clear
37°F / 3°C 37°F / 3°C 100% 30.21 in
(1023 mb)
Calm - 10SM
03:15
Clear
39°F / 4°C 39°F / 4°C 100% 30.21 in
(1023 mb)
Calm - 10SM
02:55
Clear
39°F / 4°C 39°F / 4°C 100% 30.21 in
(1023 mb)
Calm - 10SM
02:35
Clear
37°F / 3°C 37°F / 3°C 100% 30.21 in
(1023 mb)
Calm - 10SM
02:15
Clear
39°F / 4°C 39°F / 4°C 100% 30.21 in
(1023 mb)
Calm - 10SM
01:55
Clear
41°F / 5°C 41°F / 5°C 100% 30.21 in
(1023 mb)
Calm - 10SM
01:35
Clear
41°F / 5°C 41°F / 5°C 100% 30.21 in
(1023 mb)
Calm - 10SM
01:15
Clear
41°F / 5°C 41°F / 5°C 100% 30.18 in
(1022 mb)
Calm - 10SM
00:55
Clear
43°F / 6°C 43°F / 6°C 100% 30.18 in
(1022 mb)
Calm - 10SM
00:35
Clear
45°F / 7°C 45°F / 7°C 100% 30.18 in
(1022 mb)
Calm - 10SM
00:15
Clear
45°F / 7°C 45°F / 7°C 100% 30.18 in
(1022 mb)
Calm - 10SM
Time Weather Temperature Dewpoint Humidity Pressure Winds Precip Visibility


Weather for websites

WeatherForYou.com, LLC is not responsible for any damages or problems caused by this service. Current weather conditions are obtained from the closest station including government and personal stations which may have varying degrees of accuracy. Weather forecasts are derived from the NOAA NDFD. Like all things, this site belongs to Jesus Christ... He just trusts me to maintain it. If you have any questions or comments email webmaster@weatherforyou.com

Copyright © 2014, WeatherForYou.com LLC. All rights reserved.